"Pseudo-MPEC" for P21CQa7

Created 2023 Feb 3 17:22:11 UT using Find_Orb

Click here for an explanation of pseudo-MPECs

 
 Astrometry: 
     P21CQa7* C2023 01 14--FBkKf]^6H+ob5yuTsgJJM5Q/(4l_AstrometryLylsv7xbu\RwF52
     P21CQa7  C2023 01 14AG:W5esViw*$Nm,_ki87b4O:P$v)!q*;N+*nX;]Vyb^lH!+:DC+,F52
     P21CQa7  C2023 01 142ZF8vredacted;E:m*/v5njm/'clickI.CherebTlc_`-\kmnmeiF52
     P21CQa7  C2023 01 14d26nB2)6VQy^T-[aM%3f\%Y++p#o46`)2LfH)q!AL.hI*H#=4_vHF52
     P21CQa7  C2023 01 14D[Nn9xfor)O8fadRcGJdBexplanationPLyO)@R/kQ16f9^%7ATOF52

Station data:
(F52) Pan-STARRS 2, Haleakala  (N20.707382 W156.255910)  US/Hawaii.
   Observers J. Bulger, T. Dukes, T. Lowe, A. Schultz, M. Willman. Measurers
   K. Chambers, S. Chastel, T. de Boer, L. Denneau, J. Fairlamb, H.
   Flewelling, M. Huber, C.-C. Lin, E. Magnier, Y. Ramanjooloo, R. Wainscoat,
   R. Weryk. 1.8-m Ritchey-Chrétien + CCD.

Orbital elements:  P21CQa7
   Perihelion 2023 Oct 28.06858 +/- 204 TT =  1:38:45 (JD 2460245.56858)
Epoch 2023 Jan 14.0 TT = JDT 2459958.5   Earth MOID: 0.4917      AutoNEOCP
M 236.80500342 +/- 70               (J2000 ecliptic)
n   0.42914831 +/- 0.261            Peri.  134.79365 +/- 90
a   1.74072876 +/- 0.705            Node   121.08843 +/- 1.0
e   0.1585156 +/- 0.28              Incl.   22.91617 +/- 28
P   2.30/838.85d           H 20.27  G  0.15   U 11.8  SR
q 1.46479608 +/- 0.754    Q 2.01666145 +/- 35.8
From 5 observations 2023 Jan. 14 (3.7 hr); mean residual 0".14
Residuals in arcseconds: 
230114 F52  .16+  .11+    230114 F52  .04+  .22-    230114 F52  .14-  .12+    
230114 F52  .21-  .08+    230114 F52  .15+  .09-    

Ephemerides (geocentric):
Date (UTC) HH   RA             Dec           delta  r     elong  mag " sig PA
---- --------  ------------   ------------  ------ ------ -----  --- --------
2023 02 03 17  08 00 38.519   +24 53 51.13  .92381 1.8870 162.4 22.1  26d 173
2023 02 03 18  08 00 34.988   +24 54 42.89  .92389 1.8869 162.4 22.1  26d 173
2023 02 03 19  08 00 31.460   +24 55 34.63  .92397 1.8869 162.3 22.1  26d 173
2023 02 03 20  08 00 27.933   +24 56 26.33  .92405 1.8868 162.2 22.1  26d 173
2023 02 03 21  08 00 24.408   +24 57 18.01  .92413 1.8867 162.2 22.1  26d 173
2023 02 03 22  08 00 20.884   +24 58 09.67  .92421 1.8867 162.1 22.1  26d 173
2023 02 03 23  08 00 17.363   +24 59 01.29  .92429 1.8866 162.1 22.1  26d 173
2023 02 04 00  08 00 13.844   +24 59 52.89  .92437 1.8865 162.0 22.1  26d 173
2023 02 04 01  08 00 10.326   +25 00 44.46  .92445 1.8865 161.9 22.1  26d 173
2023 02 04 02  08 00 06.810   +25 01 36.01  .92453 1.8864 161.9 22.1  26d 173
2023 02 04 03  08 00 03.297   +25 02 27.52  .92461 1.8863 161.8 22.2  26d 173
2023 02 04 04  07 59 59.785   +25 03 19.01  .92470 1.8863 161.8 22.2  26d 173
2023 02 04 05  07 59 56.275   +25 04 10.47  .92478 1.8862 161.7 22.2  26d 173
2023 02 04 06  07 59 52.767   +25 05 01.91  .92486 1.8861 161.6 22.2  26d 173
2023 02 04 07  07 59 49.261   +25 05 53.31  .92495 1.8861 161.6 22.2  26d 173
2023 02 04 08  07 59 45.757   +25 06 44.69  .92503 1.8860 161.5 22.2  26d 173
2023 02 04 09  07 59 42.255   +25 07 36.04  .92512 1.8859 161.5 22.2  26d 173
2023 02 04 10  07 59 38.754   +25 08 27.36  .92520 1.8858 161.4 22.2  26d 173
2023 02 04 11  07 59 35.256   +25 09 18.65  .92529 1.8858 161.3 22.2  26d 173
2023 02 04 12  07 59 31.760   +25 10 09.91  .92538 1.8857 161.3 22.2  26d 173
2023 02 04 13  07 59 28.266   +25 11 01.15  .92547 1.8856 161.2 22.2  26d 173
2023 02 04 14  07 59 24.774   +25 11 52.35  .92555 1.8856 161.2 22.2  26d 173
2023 02 04 15  07 59 21.284   +25 12 43.53  .92564 1.8855 161.1 22.2  26d 173
2023 02 04 16  07 59 17.796   +25 13 34.68  .92573 1.8854 161.1 22.2  26d 173
2023 02 04 17  07 59 14.309   +25 14 25.80  .92582 1.8854 161.0 22.2  26d 173
2023 02 04 18  07 59 10.825   +25 15 16.90  .92591 1.8853 160.9 22.2  26d 173
2023 02 04 19  07 59 07.343   +25 16 07.96  .92600 1.8852 160.9 22.2  27d 173
2023 02 04 20  07 59 03.864   +25 16 59.00  .92609 1.8852 160.8 22.2  27d 173
2023 02 04 21  07 59 00.386   +25 17 50.00  .92618 1.8851 160.8 22.2  27d 173
2023 02 04 22  07 58 56.910   +25 18 40.98  .92627 1.8850 160.7 22.2  27d 173
2023 02 04 23  07 58 53.436   +25 19 31.93  .92636 1.8850 160.6 22.2  27d 173
2023 02 05 00  07 58 49.965   +25 20 22.84  .92645 1.8849 160.6 22.2  27d 173
2023 02 05 01  07 58 46.496   +25 21 13.73  .92655 1.8848 160.5 22.2  27d 173
2023 02 05 02  07 58 43.028   +25 22 04.59  .92664 1.8848 160.5 22.2  27d 173
2023 02 05 03  07 58 39.563   +25 22 55.43  .92673 1.8847 160.4 22.2  27d 172
2023 02 05 04  07 58 36.100   +25 23 46.23  .92683 1.8846 160.3 22.2  27d 172
2023 02 05 05  07 58 32.640   +25 24 37.00  .92692 1.8846 160.3 22.2  27d 172
2023 02 05 06  07 58 29.181   +25 25 27.74  .92702 1.8845 160.2 22.2  27d 172
2023 02 05 07  07 58 25.725   +25 26 18.45  .92711 1.8844 160.2 22.2  27d 172
2023 02 05 08  07 58 22.270   +25 27 09.14  .92721 1.8844 160.1 22.2  27d 172
2023 02 05 09  07 58 18.818   +25 27 59.79  .92731 1.8843 160.1 22.2  27d 172
2023 02 05 10  07 58 15.368   +25 28 50.41  .92740 1.8842 160.0 22.2  27d 172
2023 02 05 11  07 58 11.921   +25 29 41.01  .92750 1.8842 159.9 22.2  27d 172
2023 02 05 12  07 58 08.475   +25 30 31.57  .92760 1.8841 159.9 22.2  27d 172
2023 02 05 13  07 58 05.032   +25 31 22.10  .92770 1.8840 159.8 22.2  27d 172
2023 02 05 14  07 58 01.591   +25 32 12.61  .92779 1.8840 159.8 22.2  27d 172
2023 02 05 15  07 57 58.153   +25 33 03.08  .92789 1.8839 159.7 22.2  27d 172
2023 02 05 16  07 57 54.716   +25 33 53.53  .92799 1.8838 159.6 22.2  27d 172